EHI
0 0 0 0 0 0 0 0 0 0 0 0 0 0 0 0 0 0 0 0 0 0 0 0 0 0 0 0 0 0 0 0 0 0 0 0 0 0 0 0 0 0 0 0
0 0 0 0 0 0 0 0 0 0 0 0 0 0 0 0 0 0 0 0 0 0 0 0 0 0 0 0 0 0 0 0 0 0 0 0 0 0 0 0 0 0 0 0
0 0 0 0 0 0 0 0 0 0 0 0 0 0 0 0 0 0 0 0 0 0 0 0 0 0 0 0 0 0 0 0 0 0 0 0 0 0 0 0 0 0 0 0
0 0 0 0 0 0 0 0 0 0 0 0 0 0 0 0 0 0 0 0 0 0 0 0 0 0 0 0 0 0 0 0 0 0 0 0 0 0 0 0 0 0 0 0
0 0 0 0 0 0 0 0 0 0 0 0 0 0 0 0 0 0 0 0 0 0 0 0 0 0 0 0 0 0 0 0 0 0 0 0 0 0 0 0 0 0 0 0
0 0 0 0 0 0 0 0 0 0 0 0 0 0 0 0 0 0 0 0 0 0 0 0 0 0 0 0 0 0 0 0 0 0 0 0 0 0 0 0 0 0 0 0
0 0 0 0 0 0 0 0 0 0 0 0 0 0 0 0 0 0 0 0 0 0 0 0 0 0 0 0 0 0 0 0 0 0 0 0 0 0 0 0 0 0 0 0
0 0 0 0 0 0 0 0 0 0 0 0 0 0 0 0 0 0 0 0 0 0 0 0 0 0 0 0 0 0 0 0 0 0 0 0 0 0 0 0 0 0 0 0
0 0 0 0 0 0 0 0 0 0 0 0 0 0 0 0 0 0 0 0 0 0 0 0 0 0 0 0 0 0 0 0 0 0 0 0 0 0 0 0 0 0 0 0
0 0 0 0 0 0 0 0 0 0 0 0 0 0 0 0 0 0 0 0 0 0 0 0 0 0 0 0 0 0 0 0 0 0 0 0 0 0 0 0 0 0 0 0
0 0 0 0 0 0 0 0 0 0 0 0 0 0 0 0 0 0 0 0 0 0 0 0 0 0 0 0 0 0 0 0 0 0 0 0 0 0 0 0 0 0 0 0
0 0 0 0 0 0 0 0 0 0 0 0 0 0 0 0 0 0 0 0 0 0 0 0 0 0 0 0 0 0 0 0 0 0 0 0 0 0 0 0 0 0 0 0
0 0 0 0 0 0 0 0 0 0 0 0 0 0 0 0 0 0 0 0 0 0 0 0 0 0 0 0 0 0 0 0 0 0 0 0 0 0 0 0 0 0 0 0
0 0 0 0 0 0 0 0 0 0 0 0 0 0 0 0 0 0 0 0 0 0 0 0 0 0 0 0 0 0 0 0 0 0 0 0 0 0 0 0 0 0 0 0
0 0 0 0 0 0 0 0 0 0 0 0 0 0 0 0 0 0 0 0 0 0 0 0 0 0 0 0 0 0 0 0 0 0 0 0 0 0 0 0 0 0 0 0
0 0 0 0 0 0 0 0 0 0 0 0 0 0 0 0 0 0 0 0 0 0 0 0 0 0 0 0 0 0 0 0 0 0 0 0 0 0 0 0 0 0 0 0
0 0 0 0 0 0 0 0 0 0 0 0 0 0 0 0 0 0 0 0 0 0 0 0 0 0 0 0 0 0 0 0 0 0 0 0 0 0 0 0 0 0 0 0
0 0 0 0 0 0 0 0 0 0 0 0 0 0 0 0 0 0 0 0 0 0 0 0 0 0 0 0 0 0 0 0 0 0 0 0 0 0 0 0 0 0 0 0
0 0 0 0 0 0 0 0 0 0 0 0 0 0 0 0 0 0 0 0 0 0 0 0 0 0 0 0 0 0 0 0 0 0 0 0 0 0 0 0 0 0 0 0
0 0 0 0 0 0 0 0 0 0 0 0 0 0 0 0 0 0 0 0 0 0 0 0 0 0 0 0 0 0 0 0 0 0 0 0 0 0 0 0 0 0 0 0
0 0 0 0 0 0 0 0 0 0 0 0 0 0 0 0 0 0 0 0 0 0 0 0 0 0 0 0 0 0 0 0 0 0 0 0 0 0 0 0 0 0 0 0
0 0 0 0 0 0 0 0 0 0 0 0 0 0 0 0 0 0 0 0 0 0 0 0 0 0 0 0 0 0 0 0 0 0 0 0 0 0 0 0 0 0 0 0
0 0 0 0 0 0 0 0 0 0 0 0 0 0 0 0 0 0 0 0 0 0 0 0 0 0 0 0 0 0 0 0 0 0 0 0 0 0 0 0 0 0 0 0
0 0 0 0 0 0 0 0 0 0 0 0 0 0 0 0 0 0 0 0 0 0 0 0 0 0 0 0 0 0 0 0 0 0 0 0 0 0 0 0 0 0 0 0
0 0 0 0 0 0 0 0 0 0 0 0 0 0 0 0 0 0 0 0 0 0 0 0 0 0 0 0 0 0 0 0 0 0 0 0 0 0 0 0 0 0 0 0
0 0 0 0 0 0 0 0 0 0 0 0 0 0 0 0 0 0 0 0 0 0 0 0 0 0 0 0 0 0 0 0 0 0 0 0 0 0 0 0 0 0 0 0
0 0 0 0 0 0 0 0 0 0 0 0 0 0 0 0 0 0 0 0 0 0 0 0 0 0 0 0 0 0 0 0 0 0 0 0 0 0 0 0 0 0 0 0
Wind_Speed
5 4 3 5 6 5 6 7 8 9 9 10 7 6 6 6 7 7 7 7 7 6 6 5 5 5 4 3 3 2 2 2 1 1 1 1 1 1 1 1 0 0 0 1
3 2 3 5 7 7 7 6 8 9 11 7 6 5 5 5 6 6 8 8 7 7 6 6 5 5 4 3 3 2 2 2 2 2 2 2 1 1 1 1 1 0 0 0
4 4 4 6 6 7 5 5 5 8 8 6 7 7 6 6 6 7 7 7 7 7 6 5 5 4 3 3 3 2 2 2 2 2 3 2 2 2 1 1 1 1 1 0
2 3 4 6 1 2 4 5 5 5 6 6 6 7 6 4 4 7 7 7 6 6 6 5 3 3 3 2 2 2 2 2 2 3 3 3 3 2 1 1 1 1 1 1
1 2 8 6 1 1 2 5 3 5 7 7 6 5 4 2 3 5 6 6 5 5 5 4 3 3 2 3 3 3 2 2 2 2 2 3 3 2 1 1 1 1 2 2
2 2 6 4 2 1 1 4 2 2 5 5 4 4 5 5 6 7 6 5 5 5 4 3 4 3 3 3 3 2 2 2 2 2 2 2 1 2 2 2 1 2 2 2
3 4 9 5 2 1 1 5 4 3 4 3 3 5 6 7 7 6 6 6 5 4 3 3 3 3 2 2 2 2 2 2 2 2 2 1 1 1 2 2 2 2 2 2
4 4 8 1 2 2 4 4 3 4 4 4 5 6 6 6 6 6 6 6 5 4 3 3 3 3 2 3 3 2 2 2 3 2 2 2 2 2 2 1 1 1 2 3
8 7 3 2 3 3 2 4 4 4 5 5 5 6 6 6 5 5 5 5 4 3 3 4 3 2 2 3 2 2 3 3 3 3 2 2 2 2 2 1 1 1 2 2
4 7 4 4 3 3 3 4 5 5 5 5 5 6 6 6 5 5 4 4 3 2 3 4 4 3 2 2 2 2 2 3 3 3 3 3 2 2 2 2 1 2 2 2
5 6 5 4 3 4 4 4 5 5 4 4 5 6 5 5 5 4 4 3 2 2 2 3 3 3 3 2 2 2 2 2 2 2 2 3 3 2 2 2 2 2 2 2
6 4 3 5 4 3 4 5 5 5 6 5 4 5 5 5 4 4 3 3 3 3 3 3 3 3 3 2 1 1 1 2 2 2 2 2 2 3 5 4 5 6 5 4
5 3 3 5 4 3 4 5 5 5 5 6 5 4 4 4 4 3 3 3 3 3 3 3 3 3 3 2 1 1 1 1 1 1 2 2 2 2 3 4 5 6 6 6
4 2 3 4 4 5 4 5 5 4 4 4 4 4 3 3 3 3 3 3 3 3 3 3 3 3 3 2 1 1 1 2 2 1 1 2 2 2 2 3 4 4 5 7
3 3 5 4 4 4 4 4 4 4 5 4 3 3 3 3 3 4 4 3 3 2 3 2 3 3 3 2 1 1 1 1 1 1 1 1 2 2 2 2 2 3 3 4
4 3 3 3 4 4 4 4 4 5 5 4 4 4 3 3 3 3 3 2 2 2 3 3 3 3 2 2 1 1 1 2 2 1 1 2 2 2 2 2 2 3 3 3
2 3 3 4 5 5 5 4 4 5 4 4 4 4 3 3 3 3 3 3 2 2 2 2 3 3 2 2 1 1 1 2 3 2 2 2 2 2 2 2 2 2 3 3
5 5 5 5 5 5 5 4 4 4 4 4 3 3 3 2 3 3 3 3 3 3 3 3 3 2 2 2 2 1 1 1 1 2 2 2 2 2 2 2 2 2 3 3
4 4 4 4 4 4 3 4 3 3 3 3 2 2 3 3 3 3 2 3 3 4 4 4 5 3 3 3 3 1 1 1 2 2 2 3 3 2 2 2 2 2 3 3
3 3 3 3 2 2 3 3 3 3 2 2 2 2 2 3 3 2 2 2 2 3 4 4 3 3 3 3 3 1 1 2 2 2 2 2 2 2 2 2 2 2 2 2
3 3 2 2 3 2 2 2 2 2 2 2 1 2 2 3 2 2 2 3 4 3 3 4 3 2 2 3 3 1 1 1 2 2 2 2 2 2 2 2 2 2 2 2
3 2 3 2 2 3 2 2 2 2 2 2 2 1 2 2 3 2 2 2 3 5 3 2 2 3 4 4 2 1 1 1 1 1 2 2 2 2 2 3 2 2 2 2
3 2 2 2 2 2 2 2 1 1 2 2 2 2 2 2 2 2 3 3 3 5 3 2 4 6 5 2 1 1 1 1 1 2 2 2 2 2 2 3 3 2 2 2
2 2 2 1 0 1 2 2 2 1 2 2 2 2 2 2 2 2 2 4 5 5 3 4 6 6 5 2 1 1 1 1 2 2 2 2 2 2 2 2 3 3 3 3
2 2 1 1 2 2 2 2 1 1 2 2 2 2 1 1 2 2 2 3 4 4 3 4 6 6 3 2 2 2 2 1 2 2 2 2 2 2 2 2 2 3 3 3
2 2 2 3 2 2 1 1 1 2 1 2 2 2 2 1 1 1 1 2 3 3 3 2 3 3 2 2 2 2 2 2 3 2 2 2 2 2 2 2 3 3 3 3
1 1 1 1 2 2 2 2 2 2 2 2 3 2 2 1 1 1 2 2 2 2 2 2 2 2 2 2 2 2 2 2 2 2 2 2 2 2 2 3 2 2 3 3
Wind_Direction
259 269 251 247 245 221 211 212 225 254 262 280 298 302 306 313 319 323 323 326 327 327 322 324 330 332 332 336 341 352 26 29 3 359 12 31 44 50 52 80 346 245 262 294
297 286 260 267 257 237 235 234 245 272 277 283 297 308 309 309 312 312 314 316 319 320 320 323 325 328 330 338 342 358 33 22 15 23 28 32 38 55 44 37 34 24 47 323
287 317 337 281 247 211 215 220 210 240 264 312 318 316 307 301 303 301 305 311 313 311 310 312 311 315 323 332 349 20 35 27 25 31 29 24 39 48 40 32 40 19 360 344
309 8 263 254 255 195 220 250 236 263 290 300 297 298 289 284 294 303 311 314 314 316 318 318 319 330 343 357 16 29 35 34 34 36 27 27 39 35 25 29 15 341 341 341
126 281 282 298 293 177 211 284 245 256 288 307 320 321 312 316 313 301 302 305 307 310 312 320 333 343 4 16 23 29 23 20 19 26 31 30 28 14 12 38 7 1 356 351
145 222 255 272 288 266 123 302 316 276 292 312 345 337 301 323 323 316 316 318 319 325 332 342 343 1 24 19 18 7 359 355 359 26 29 25 18 6 21 27 13 9 358 351
192 234 264 265 280 70 125 280 312 296 288 293 274 256 286 311 315 313 316 322 329 332 339 338 346 12 20 13 352 339 354 5 10 22 27 11 29 29 30 25 23 13 358 346
172 215 257 257 110 176 244 290 303 295 287 284 284 289 298 307 313 321 327 330 335 339 340 341 354 8 2 347 335 352 14 20 19 16 8 7 33 18 19 18 14 357 359 349
198 219 249 204 218 247 256 279 288 288 293 291 291 295 303 310 312 316 317 320 329 339 344 347 354 2 341 327 346 9 26 24 19 10 11 14 22 12 5 357 349 337 343 336
254 266 268 268 261 277 275 272 288 290 289 289 286 293 302 307 310 312 313 317 327 343 345 335 340 351 338 331 2 26 24 16 17 20 16 17 10 5 350 331 332 332 332 325
255 276 302 281 269 284 293 300 304 303 287 281 285 293 296 302 304 305 310 319 327 325 319 317 328 337 342 350 23 29 13 5 9 15 13 10 7 360 343 333 331 323 313 305
235 237 234 268 276 287 295 298 301 305 304 301 287 287 297 299 300 304 311 321 325 323 318 320 328 332 340 346 18 38 3 359 2 4 4 7 6 359 360 350 353 351 342 332
241 263 249 269 283 290 287 289 295 294 289 297 302 293 295 298 305 314 320 322 316 315 319 324 332 332 335 343 358 16 345 332 340 347 346 347 349 349 345 354 2 358 353 349
247 262 276 272 281 299 298 298 299 300 300 299 303 306 305 307 315 323 319 315 317 325 332 333 337 330 331 344 360 0 348 336 336 330 329 330 328 326 324 329 336 341 348 356
258 244 249 273 292 307 312 316 319 318 320 321 317 314 315 314 313 314 318 327 333 338 337 339 338 328 331 343 358 349 340 329 326 318 321 322 320 319 319 321 325 326 330 344
282 285 269 274 287 299 310 314 308 309 316 316 322 323 320 314 310 315 327 338 339 325 323 329 323 320 330 340 340 330 322 321 322 314 316 318 314 312 314 320 326 324 324 326
235 273 280 287 287 291 291 287 287 295 307 313 312 316 325 332 333 334 337 337 323 312 318 324 320 327 335 336 327 313 310 312 323 322 310 308 309 309 309 314 317 319 319 327
230 241 246 249 260 277 289 295 293 298 299 303 314 325 330 326 316 316 323 331 339 340 338 330 325 333 339 334 323 309 304 304 309 307 307 309 311 311 311 313 318 320 322 328
241 245 254 258 258 260 273 286 292 295 302 309 317 316 309 305 305 314 327 338 338 331 328 330 337 348 337 326 331 319 317 317 320 320 317 315 325 324 319 313 313 313 313 321
253 255 254 266 273 263 272 283 290 295 303 307 307 316 322 319 322 328 335 324 303 294 303 316 328 331 327 314 328 318 315 317 316 317 320 319 317 313 312 311 309 310 315 319
249 253 256 263 276 277 269 272 278 290 304 308 292 293 304 315 323 325 326 317 312 313 316 323 332 321 317 316 322 314 307 309 308 308 315 316 314 310 310 308 307 310 312 315
240 242 250 259 270 285 289 283 274 284 304 306 303 307 316 320 323 318 293 275 296 318 329 317 314 319 321 322 312 304 302 305 313 320 317 310 307 307 312 312 309 311 310 308
235 236 243 250 253 274 299 294 278 274 277 281 281 281 287 292 293 294 303 304 304 315 325 308 316 326 333 346 346 330 327 327 322 317 309 303 303 305 306 308 308 309 308 308
226 233 242 246 206 261 284 290 294 285 276 280 275 271 277 295 298 279 281 307 318 322 326 323 336 342 352 11 353 342 335 329 325 317 309 306 304 305 306 307 308 308 310 312
216 215 206 197 219 243 256 279 300 295 294 295 294 291 285 267 268 294 310 311 319 331 335 332 339 347 3 359 350 338 327 317 315 315 311 313 313 313 315 315 311 308 307 306
207 213 220 226 230 237 241 236 255 270 280 293 299 295 299 302 293 297 306 311 313 325 331 325 329 338 346 338 333 327 323 323 332 332 322 316 313 315 315 314 313 308 305 303
206 211 219 248 246 227 225 229 241 255 255 260 280 291 301 308 309 308 308 314 319 321 320 321 325 327 326 326 325 323 322 322 321 317 314 313 312 309 309 307 306 306 306 307